COSMOS 1937

Satellite information

Favourite Embed

Satellite Type and Status

PAYLOADIN ORBIT

Key statistics

Satellite COSMOS 1937 at a glance.

Uptime

13767

Days in orbit

Revolutions

≈ 14.4

Per day

Orbit

LEO

Low Earth Orbit

Inclination

74.0

Latest

Satellite identification and parameters

Extended collection of information and parameters for COSMOS 1937.

Object identification

Identified? True

Debris? False

Object name: COSMOS 1937

International designator: 1988-029A

Object number (NORAD): 19038

Object ID (CCSDS): 19038

Country: COMMONWEALTH OF INDEPENDENT STATES (CIS)

Current information (Y/N): Y

RCS size: LARGE

Orbital parameters

Period: 100.273 minutes

Inclination: 74.0461 deg

SMA: 7149.603 km

Apoapsis: 789.06 km

Periapsis: 753.876 km

RAAN: 87.6496 deg

Eccentricy: 0.00246054

Argument of periapsis: 221.8182 deg

Mean anomaly: 166.0822 deg

Mean motion: 14.36084008 rev/day

Mean motion (dot): 0.00000328 rev/day2

B* drag term: 0.00012125286 1/REarth

Two-line elements (TLE)

Creation date: Dec. 12, 2025, 10:14 a.m.

Reference frame: TEME

Reference center: EARTH

Epoch: Dec. 12, 2025, 6:15 a.m. UTC

TLE line 0: 0 COSMOS 1937

TLE line 1: 1 19038U 88029A 25346.26048019 .00000328 00000-0 12125-3 0 9995

TLE line 2: 2 19038 74.0461 87.6496 0024605 221.8182 166.0822 14.36084008972913

Live tracking on map

Real-time ground track for satellite COSMOS 1937.

In-orbit conjunctions

A list of the most updated potential collisions computed for object COSMOS 1937.

Target Orbit TCA Probability of collision Miss distance Type
FENGYUN 1C DEB SSO 2025-10-05 08:30:25 0.0001260633 892.0 (m) DEBRIS
DMSP 5D-2 F13 DEB SSO 2025-02-13 17:27:22 0.0003089315 730.0 (m) DEBRIS
CZ-6A DEB SSO 2024-11-21 17:42:51 0.0001253419 603.0 (m) DEBRIS
COSMOS 2251 DEB LEO 2024-10-30 15:01:09 0.0001973262 301.0 (m) DEBRIS
CZ-6A DEB SSO 2024-10-25 15:06:08 0.0001658518 612.0 (m) DEBRIS

Associated space launch

Military communications satellite

COSMOS 1937 was lifted into orbit during the mission ‘Kosmos-3M | Strela-2M 44’, on board a Kosmos-3M space rocket.

The launch took place on April 5, 1988, 2:41 p.m. from 133/3 (133L).

For more information about the launch, click the button.

Launch to space Kosmos-3M | Strela-2M 44
Kosmos-3M | Strela-2M 44

Agency: N/A

Status: Launch Successful

Launch date: April 5, 1988, 2:41 p.m. UTC

Rocket: Kosmos-3M

Launch pad: 133/3 (133L)

Location: Plesetsk Cosmodrome, Russian Federation

...

Latest news about this satellite

There are no fresh news available about this satellite. Check back as we update our databases every day.


Newsletter sign-up

Weekly statistics, charts and insights to help you stay on top of the space industry.